Flag for Cambodia Weather past 2 weeks in Phnom Penh, Cambodia

Now
75 °F

Clear.


Feels Like: 77 °F
Forecast: 71 / 86 °F
Wind: 8 mph from Northeast

Location: Phnom-Penh / Pochentong

Current Time: Dec 18, 2014 at 3:34:57 AM

Latest Report: Dec 18, 2014 at 1:00 AM


Visibility: 6 mi

Pressure: 29.95 "Hg

Humidity: 65%

Dew point: 63 °F

Location of Phnom PenhLocation

Historic Weather in Phnom Penh — Graph

°F

Phnom Penh temperature yesterday

Maximum temperature yesterday: 82 °F (at 1:30 PM)
Minimum temperature yesterday: 75 °F (at 7:30 AM)
Average temperature yesterday: 78 °F

Past Weeks' High & Low Weather Summary

 TemperatureHumidityPressure
High91 °F (Dec 4, 4:00 PM)94% (Dec 4, 10:30 PM)29.98 "Hg (Dec 4, 10:30 PM)
Low73 °F (Dec 15, 6:30 AM)40% (Dec 10, 12:00 PM)29.71 "Hg (Dec 3, 2:00 PM)
Average83 °F69%29.85 "Hg
* Reported Dec 3 1:00 AM — Dec 18 1:00 AM, Phnom Penh, Weather by CustomWeather, © 2014

Note: Actual official high and low records may vary slightly from our data, if they occured in-between our weather recording intervals... More about our weather records

Advertising

Phnom Penh weather history for previous 24 hours

 ConditionsComfort  
Time TempWeatherWind HumidityBarometerVisibility
1:00 AM
Dec 18
75 °FClear.8 mph65%29.95 "Hg6 mi
12:30 AM75 °FClear.10 mph69%29.95 "Hg6 mi
12:00 AM75 °FClear.10 mph69%29.95 "Hg6 mi
11:30 PM
Dec 17
75 °FClear.9 mph69%29.95 "Hg6 mi
11:00 PM75 °FClear.10 mph69%29.95 "Hg6 mi
10:30 PM75 °FPassing clouds.9 mph69%29.95 "Hg6 mi
10:00 PM75 °FClear.8 mph69%29.95 "Hg6 mi
9:30 PM75 °FClear.8 mph69%29.95 "Hg6 mi
9:00 PM75 °FClear.8 mph69%29.95 "Hg6 mi
8:30 PM75 °FClear.9 mph69%29.92 "Hg6 mi
7:30 PM77 °FClear.6 mph65%29.89 "Hg6 mi
7:00 PM77 °FClear.7 mph74%29.89 "Hg6 mi
6:30 PM79 °FClear.7 mph65%29.86 "Hg6 mi
6:00 PM79 °FPassing clouds.10 mph65%29.86 "Hg6 mi
5:30 PM79 °FScattered clouds.6 mph70%29.86 "HgN/A
5:00 PM81 °FBroken clouds.13 mph62%29.83 "HgN/A
4:30 PM81 °FBroken clouds.12 mph62%29.83 "HgN/A
4:00 PM81 °FBroken clouds.13 mph62%29.83 "HgN/A
3:30 PM82 °FScattered clouds.14 mph58%29.80 "HgN/A
3:00 PM82 °FScattered clouds.14 mph58%29.80 "HgN/A
2:30 PM82 °FScattered clouds.13 mph62%29.83 "HgN/A
2:00 PM82 °FScattered clouds.13 mph58%29.83 "HgN/A
1:30 PM82 °FScattered clouds.13 mph58%29.86 "HgN/A
1:00 PM81 °FScattered clouds.14 mph62%29.86 "HgN/A
12:30 PM81 °FScattered clouds.13 mph62%29.89 "HgN/A
12:00 PM79 °FPassing clouds.14 mph65%29.89 "HgN/A
11:30 AM81 °FPassing clouds.14 mph62%29.92 "HgN/A
11:00 AM79 °FPassing clouds.15 mph61%29.92 "HgN/A
10:30 AM79 °FPassing clouds.15 mph61%29.95 "HgN/A
10:00 AM77 °FPassing clouds.14 mph65%29.95 "HgN/A
9:30 AM77 °FScattered clouds.15 mph65%29.95 "HgN/A
9:00 AM75 °FScattered clouds.16 mph69%29.95 "HgN/A
8:30 AM77 °FScattered clouds.15 mph65%29.95 "HgN/A
8:00 AM75 °FScattered clouds.14 mph74%29.95 "HgN/A
7:30 AM75 °FScattered clouds.13 mph74%29.95 "Hg6 mi
6:30 AM77 °FPartly sunny.12 mph74%29.92 "HgN/A
6:00 AM77 °FPassing clouds.13 mph74%29.89 "Hg6 mi
Weather by CustomWeather, © 2014

See weather overviewHow to use our weather pages